Waarnemingen

Advertentie
Mijn weer
Ibiza/Es Codola, Spanje (8373): temperatuur & dauwpunt: 21.02.2020 02:00:00 - 27.02.2020 02:00:00 (CET)Ibiza/Es Codola, Spanje (8373): windsnelheid: 21.02.2020 02:00:00 - 27.02.2020 02:00:00 (CET)Ibiza/Es Codola, Spanje (8373): windrichting: 21.02.2020 02:00:00 - 27.02.2020 02:00:00 (CET)Ibiza/Es Codola, Spanje (8373): luchtdruk: 21.02.2020 02:00:00 - 27.02.2020 02:00:00 (CET)Ibiza/Es Codola, Spanje (8373): zicht: 21.02.2020 02:00:00 - 27.02.2020 02:00:00 (CET)
Datum & Tijd tt [°C] td [°C] ff [km/u] ff [kn] dd ppp [hPa] vv [km]
27.02.2020 02:00:00 8,3 2,8 8 4 NNW 1021,0 10
27.02.2020 01:00:00 9,0 4,3 5 3 NNO 1021,0 30
27.02.2020 00:00:00 8,8 5,6 9 5 N 1021,1 10
26.02.2020 23:00:00 10,6 6,7 2 1 N 1020,8 10
26.02.2020 22:00:00 10,3 5,3 4 2 NW 1020,6 23
26.02.2020 21:00:00 10,8 4,5 9 5 WNW 1020,1 10
26.02.2020 20:00:00 12,2 7,6 11 6 WZW 1019,4 10
26.02.2020 19:00:00 14,2 -0,6 9 5 NNW 1018,2 10
26.02.2020 18:00:00 16,1 0,9 11 6 NNW 1017,8 10
26.02.2020 17:00:00 17,2 -0,6 15 8 NNW 1017,8 10
26.02.2020 16:00:00 17,4 0,9 15 8 WNW 1017,7 10
26.02.2020 15:00:00 17,9 2,2 16 9 WNW 1017,8 10
26.02.2020 14:00:00 17,5 4,3 16 9 NW 1018,1 10
26.02.2020 13:00:00 17,6 3,8 21 11 NNW 1018,5 25
26.02.2020 12:00:00 16,6 5,9 21 11 NNW 1018,8 10
26.02.2020 11:00:00 16,5 8,9 13 7 NW 1018,6 10
26.02.2020 10:00:00 15,7 9,1 16 9 NW 1018,3 20
26.02.2020 09:00:00 14,2 8,8 16 9 NW 1017,7 10
26.02.2020 08:00:00 13,4 8,9 18 10 NW 1016,9 10
26.02.2020 07:00:00 13,6 7,7 16 9 NW 1016,5 15
26.02.2020 06:00:00 13,5 6,6 8 4 W 1015,9 10
26.02.2020 05:00:00 13,2 9,4 9 5 W 1015,8 10
26.02.2020 04:00:00 13,1 6,3 13 7 W 1015,8 10
26.02.2020 03:00:00 8,6 2,2 2 1 - 1016,1 10
26.02.2020 02:00:00 8,0 3,5 0 0 N 1016,3 10
26.02.2020 01:00:00 9,0 4,2 4 2 - 1016,1 10
26.02.2020 00:00:00 9,5 5,7 5 3 NNW 1016,4 10
25.02.2020 23:00:00 11,0 8,4 13 7 NNW 1016,6 10
25.02.2020 22:00:00 11,8 9,1 8 4 N 1016,6 15
25.02.2020 21:00:00 12,7 10,7 5 3 ONO 1016,3 10
25.02.2020 20:00:00 13,6 10,5 5 3 N 1016,2 10
25.02.2020 19:00:00 14,4 11,6 8 4 ZW 1015,8 15
25.02.2020 18:00:00 15,5 11,7 9 5 ZZW 1015,2 10
25.02.2020 17:00:00 16,2 12,0 16 9 ZW 1015,1 10
25.02.2020 16:00:00 17,7 8,2 18 10 ZZW 1015,1 20
25.02.2020 15:00:00 18,2 8,7 26 14 WZW 1015,5 10
25.02.2020 14:00:00 17,6 9,7 22 12 ZW 1016,0 10
25.02.2020 13:00:00 17,8 9,6 21 11 ZW 1016,7 20
25.02.2020 12:00:00 16,6 11,0 15 8 ZZW 1017,2 10
25.02.2020 11:00:00 15,9 12,1 21 11 ZW 1017,7 10
25.02.2020 10:00:00 15,5 12,8 24 13 WZW 1017,4 18
25.02.2020 09:00:00 14,6 12,3 18 10 WZW 1018,1 10
25.02.2020 08:00:00 13,8 11,8 18 10 ZW 1017,5 10
25.02.2020 07:00:00 12,1 10,5 11 6 WZW 1017,7 15
25.02.2020 06:00:00 12,3 10,2 13 7 W 1017,9 10
25.02.2020 05:00:00 12,3 10,0 13 7 WZW 1018,0 10
25.02.2020 04:00:00 12,3 10,1 13 7 WZW 1018,5 10
25.02.2020 03:00:00 12,6 10,3 15 8 WZW 1019,4 10
25.02.2020 02:00:00 12,8 10,3 13 7 WZW 1020,1 10
25.02.2020 01:00:00 12,3 10,3 13 7 WZW 1020,9 15
25.02.2020 00:00:00 12,5 10,6 13 7 ZW 1021,6 10
24.02.2020 23:00:00 12,5 10,3 13 7 ZW 1021,9 10
24.02.2020 22:00:00 13,1 11,0 11 6 ZW 1022,4 15
24.02.2020 21:00:00 12,9 10,4 11 6 ZW 1022,8 10
24.02.2020 20:00:00 12,5 9,9 11 6 ZW 1023,2 10
24.02.2020 19:00:00 12,8 9,4 11 6 ZW 1023,2 15
24.02.2020 18:00:00 14,6 9,1 11 6 ZW 1023,2 10
24.02.2020 17:00:00 15,4 9,8 11 6 ZW 1023,7 10
24.02.2020 16:00:00 16,2 9,3 11 6 ZW 1024,7 15
24.02.2020 15:00:00 16,2 7,9 13 7 ZW 1025,3 10
24.02.2020 14:00:00 16,7 6,4 13 7 ZW 1026,3 10
24.02.2020 13:00:00 16,5 8,8 15 8 ZW 1027,4 15
24.02.2020 12:00:00 15,9 8,5 15 8 ZW 1028,1 10
24.02.2020 11:00:00 15,3 9,0 13 7 ZW 1028,4 10
24.02.2020 10:00:00 13,8 10,8 8 4 ZZW 1028,9 15
24.02.2020 09:00:00 10,8 8,1 0 0 N 1028,9 10
24.02.2020 08:00:00 4,9 3,5 0 0 N 1028,9 10
24.02.2020 07:00:00 3,0 1,0 0 0 N 1028,8 25
24.02.2020 06:00:00 5,1 2,8 5 3 N 1029,2 10
24.02.2020 05:00:00 4,8 2,0 2 1 - 1029,3 10
24.02.2020 04:00:00 5,3 3,1 9 5 NNW 1029,6 10
24.02.2020 03:00:00 5,8 4,3 4 2 N 1030,3 10
24.02.2020 02:00:00 8,1 6,4 5 3 NW 1030,8 10
24.02.2020 01:00:00 9,7 7,8 8 4 WNW 1031,2 10
24.02.2020 00:00:00 9,6 7,3 8 4 W 1031,5 10
23.02.2020 23:00:00 9,2 7,1 8 4 WNW 1031,7 10
23.02.2020 22:00:00 9,8 7,5 0 0 N 1031,9 10
23.02.2020 21:00:00 9,3 6,8 8 4 NW 1031,8 10
23.02.2020 20:00:00 10,6 7,1 9 5 WNW 1031,8 10
23.02.2020 19:00:00 11,3 7,7 11 6 ZW 1031,7 10
23.02.2020 18:00:00 14,2 8,6 13 7 ZW 1031,9 10
23.02.2020 17:00:00 15,0 8,9 13 7 ZW 1032,1 10
23.02.2020 16:00:00 15,6 9,9 15 8 ZZW 1032,3 22
23.02.2020 15:00:00 15,9 10,0 16 9 ZZW 1032,8 10
23.02.2020 14:00:00 16,4 10,6 13 7 ZZW 1033,4 10
23.02.2020 13:00:00 16,0 9,6 13 7 ZW 1034,3 22
23.02.2020 12:00:00 15,8 10,4 9 5 ZZW 1034,8 10
23.02.2020 11:00:00 14,8 10,8 9 5 ZW 1035,1 10
23.02.2020 10:00:00 13,9 10,7 9 5 ZW 1034,6 10
23.02.2020 09:00:00 10,3 8,6 4 2 ZW 1034,5 10
23.02.2020 08:00:00 5,0 3,5 2 1 NW 1034,3 10
23.02.2020 07:00:00 5,1 2,9 4 2 NW 1034,2 25
23.02.2020 06:00:00 5,1 2,6 5 3 NW 1034,3 10
23.02.2020 05:00:00 6,4 3,3 4 2 NW 1034,0 10
23.02.2020 04:00:00 5,2 3,8 4 2 ZZW 1034,0 20
23.02.2020 03:00:00 6,3 4,8 4 2 - 1034,3 10
23.02.2020 02:00:00 6,6 4,8 5 3 NNW 1034,5 10
23.02.2020 01:00:00 7,0 5,5 4 2 NNO 1034,8 20
23.02.2020 00:00:00 6,7 5,4 4 2 N 1034,5 10
22.02.2020 23:00:00 7,4 5,7 8 4 NNW 1034,5 10
22.02.2020 22:00:00 8,0 6,1 2 1 NW 1034,2 20
22.02.2020 21:00:00 8,8 6,9 0 0 N 1034,0 10
22.02.2020 20:00:00 10,1 7,5 8 4 NNW 1034,0 10
22.02.2020 19:00:00 12,3 8,6 0 0 N 1033,4 30
22.02.2020 18:00:00 15,2 9,8 4 2 ZZW 1032,9 10
22.02.2020 17:00:00 15,3 9,7 8 4 ZW 1032,6 10
22.02.2020 16:00:00 15,5 9,6 11 6 ZW 1032,4 30
22.02.2020 15:00:00 15,9 10,0 13 7 ZW 1032,7 10
22.02.2020 14:00:00 15,9 10,2 11 6 WZW 1032,9 10
22.02.2020 13:00:00 15,2 9,5 11 6 ZW 1033,6 20
22.02.2020 12:00:00 15,2 10,1 11 6 ZW 1033,6 10
22.02.2020 11:00:00 14,3 10,2 9 5 ZW 1033,4 10
22.02.2020 10:00:00 13,0 10,7 4 2 Z 1033,0 8
22.02.2020 09:00:00 9,2 8,2 2 1 - 1032,5 10
22.02.2020 08:00:00 5,6 4,7 0 0 N 1031,8 10
22.02.2020 07:00:00 4,8 3,9 4 2 N 1031,4 28
22.02.2020 06:00:00 4,4 3,4 0 0 N 1031,2 1,4
22.02.2020 05:00:00 4,9 3,8 0 0 N 1030,7 10
22.02.2020 04:00:00 6,6 5,4 4 2 - 1030,5 10
22.02.2020 03:00:00 6,3 4,9 0 0 N 1030,7 10
22.02.2020 02:00:00 6,9 5,7 0 0 N 1030,9 10
22.02.2020 01:00:00 5,1 3,6 2 1 - 1031,0 10
22.02.2020 00:00:00 5,9 4,2 0 0 N 1031,0 10
21.02.2020 23:00:00 7,0 4,6 0 0 N 1030,9 10
21.02.2020 22:00:00 8,4 5,7 5 3 N 1030,9 10
21.02.2020 21:00:00 8,0 5,0 0 0 N 1030,4 10
21.02.2020 20:00:00 9,3 5,6 9 5 NNW 1030,5 10
21.02.2020 19:00:00 12,1 6,6 4 2 Z 1030,1 30
21.02.2020 18:00:00 14,5 5,8 8 4 ZZO 1029,9 10
21.02.2020 17:00:00 15,6 5,8 5 3 ONO 1029,9 10
21.02.2020 16:00:00 15,4 7,9 8 4 O 1029,8 30
21.02.2020 15:00:00 15,2 8,0 4 2 O 1030,3 10
21.02.2020 14:00:00 14,9 8,9 8 4 O 1030,7 10
21.02.2020 13:00:00 15,5 9,7 13 7 O 1031,1 25
21.02.2020 12:00:00 15,0 9,9 18 10 O 1031,1 10
21.02.2020 11:00:00 15,0 9,2 15 8 NO 1030,6 10
21.02.2020 10:00:00 13,8 9,2 11 6 NO 1029,9 25
21.02.2020 09:00:00 11,5 9,0 4 2 - 1029,6 10
21.02.2020 08:00:00 7,1 5,7 9 5 N 1029,4 10
21.02.2020 07:00:00 5,1 4,1 4 2 - 1028,8 10
21.02.2020 06:00:00 6,1 4,9 5 3 N 1028,5 10
21.02.2020 05:00:00 6,1 4,7 8 4 N 1028,7 10
21.02.2020 04:00:00 6,4 5,2 4 2 N 1028,3 15
21.02.2020 03:00:00 6,6 5,1 4 2 - 1028,0 10
21.02.2020 02:00:00 6,6 5,5 4 2 NW 1027,5 10

tt = temperatuur
td = dauwpunt
ff = windsnelheid
dd = windrichting
ppp = luchtdruk
vv = zicht

Weerstations in de omgeving